Back to catalog

FENGYUN 1C DEB

AliveSSO
NORAD 30768·DEBRIS·🇨🇳 China

Launched May 10, 1999 from Taiyuan Satellite Launch Center

Loading…

Next Passes (next 24 hours)

TLE

FreshSource: Space-Track

Epoch: Sep 14, 2026, 12:53 UTC

1 30768U 99025AUE 26257.53743936  .00003907  00000-0  98652-3 0  9993
2 30768  98.6164 358.3792 0022406 342.0679 151.4675 14.51475800 18689

Track FENGYUN 1C DEB in real time with AllMySat

Download on the App Store